Regional Weather Roundup
Issued by NWS Binghamton, NY

Home | Current Version | Previous Version | Text Only | Print | Product List | Glossary On
Versions: 1 2 3 4 5 6 7 8 9 10 11 12 13 14 15 16 17 18 19 20 21 22 23 24 25 26 27
000
ASUS41 KBGM 292110
RWRBGM

REGIONAL WEATHER ROUNDUP
NATIONAL WEATHER SERVICE BINGHAMTON NY
500 PM EDT SUN MAY 29 2016

Note: "fair" indicates few or no clouds below 12,000 feet with no
significant weather and/or obstructions to visibility.

* = Station(s) that does not report precipitation, such as rain,
snow, etc, also no thunder or fog.

NYZ009-015>018-022>025-036-037-044>046-055>057-062-292200
...Central New York...

CITY           SKY/WX    TMP DP  RH WIND       PRES   REMARKS
Binghamton     CLOUDY    85  62  46 SW12      30.04F HX  85
Cortland       FAIR      72  63  73 W10G16    30.06S
Dansville      CLOUDY    78  67  68 SE12      30.01F
Elmira         NOT AVBL
Ithaca         CLOUDY    70  63  78 W6        30.07F
Hamilton       PTSUNNY   79  64  61 S10G22    30.05R
Hornell        MOSUNNY   75  68  78 S8        30.08S
Monticello     MOSUNNY   86  64  48 S16G24    30.09F HX  87
Penn Yan       CLOUDY    69  65  86 W8        30.06S
Rome           MOSUNNY   78  71  79 E7        30.01F
Sidney         SUNNY     90  61  37 SW8       30.01S HX  89
Syracuse       TSTM      66  66 100 W24G45    30.02R FOG
$$

PAZ038>040-043-044-047-048-072-292200
...Northeast Pennsylvania...

CITY           SKY/WX    TMP DP  RH WIND       PRES   REMARKS
Hazleton       MOSUNNY   82  52  34 CALM      30.13F
Scranton       CLOUDY    86  61  42 S10       30.05S HX  86
$$
&&
KEY
WCI = Wind Chill Index
VSB = Visibility
HX  = Heat Index
$$




USA.gov is the U.S. government's official web portal to all federal, state and local government web resources and services.